www.pogodaiklimat.ru

Погода и климат >> Архив погоды >> Кувейт >> Mitribah


ПОГОДА в Mitribah

  • Прогноз погоды в Mitribah
  • Монитор погоды в Mitribah
  • Климат города

АРХИВ ПОГОДЫ в Mitribah

Время (UTC), дата Ветер
(напр.,м/с)
 
Видим.   Явления Облачность Т
(С)
Тd
(С)
f
(%)
Тe
(С)
Тes
(С)
Комфортность P
(гПа)
Po
(гПа)
Тmin
(С)
Tmax
(С)
R
(мм)
R24
(мм)
S
(см)
21 10.10 ЮЗ 6-8
{10}
19 км н/о +27.3 +3.9 22 +26 +26 жарко 1008.5 1009.0 +23.8 +40.8
00 11.10 З 7-8
{10}
12 км н/о +24.7 +8.5 36 +25 +25 комфорт 1009.4 1009.0
03 11.10 З 4-5
{8}
13 км н/о +23.5 +9.3 40 +24 +24 комфорт 1010.7 1011.0
06 11.10 З 9-11
{11}
18 км н/о +31.6 +9.6 26 +31 +31 жарко 1011.8 1012.0
09 11.10 З 8-12
{14}
16 км н/о +36.9 +7.7 17 +35 +35 очень
жарко
1010.5 1011.0
12 11.10 СЗ 8-11
{14}
19 км н/о +36.8 +7.1 16 +34 +34 очень
жарко
1009.7 1010.0
15 11.10 СЗ 5-6
{13}
10 км н/о +31.8 +6.9 21 +30 +30 жарко 1011.0 1011.0
18 11.10 З 4-4
{13}
16 км н/о +26.9 +7.1 28 +26 +26 жарко 1012.4 1012.0
21 11.10 З 5-6
{6}
18 км н/о +25.0 +8.7 35 +25 +25 комфорт 1012.9 1013.0 +23.3 +38.1
00 12.10 СЗ 5-6
{6}
19 км н/о +22.7 +9.0 42 +24 +24 комфорт 1012.8 1013.0
03 12.10 СЗ 2-3
{6}
5000 м дымка н/о +20.6 +8.6 46 +23 +23 комфорт 1013.8 1014.0
06 12.10 СЗ 8-10
{10}
19 км н/о +29.0 +7.1 25 +28 +28 жарко 1014.6 1015.0
09 12.10 СЗ 8-11
{12}
20 км н/о +34.5 +6.7 18 +32 +32 жарко 1013.2 1013.0
12 12.10 СЗ 8-11
{13}
19 км н/о +34.9 +5.7 16 +32 +32 жарко 1012.0 1012.0
15 12.10 СЗ 5-5
{12}
20 км н/о +30.3 +4.8 20 +28 +28 жарко 1012.9 1013.0
18 12.10 З 4-5
{12}
19 км н/о +25.9 +5.0 26 +25 +25 комфорт 1013.8 1014.0
21 12.10 З 4-5
{6}
19 км н/о +23.6 +5.8 32 +24 +24 комфорт 1013.3 1013.0 +20.5 +36.1
00 13.10 З 5-5
{7}
20 км н/о +21.8 +4.6 32 +22 +22 комфорт 1012.4 1012.0
03 13.10 ЮЗ 4-4
{6}
19 км н/о +20.5 +4.5 35 +21 +21 комфорт 1013.4 1013.0
06 13.10 СЗ 6-7
{7}
20 км н/о +29.7 +3.9 19 +28 +28 жарко 1013.7 1014.0
09 13.10 СЗ 4-6
{7}
19 км н/о +36.1 +2.6 12 +33 +33 жарко 1011.6 1012.0
12 13.10 СЗ 4-6
{8}
19 км н/о +37.0 +5.1 14 +34 +34 очень
жарко
1009.8 1010.0
15 13.10 СЗ 2-3
{6}
10 км дымка н/о +31.5 +3.9 17 +29 +29 жарко 1010.0 1010.0
18 13.10 З 2-2
{6}
12 км н/о +28.1 +3.1 20 +26 +26 жарко 1010.9 1011.0
21 13.10 ЮЗ 2-2
{3}
19 км н/о +23.4 +1.6 24 +23 +23 комфорт 1010.7 1011.0 +20.2 +38.2
00 14.10 З 3-3
{4}
19 км н/о +21.5 +1.1 26 +21 +21 комфорт 1010.3 1010.0
03 14.10 ЮЗ 4-5
{5}
20 км н/о +19.9 +1.5 29 +20 +20 1011.7 1012.0
06 14.10 З 1-2
{5}
19 км н/о +31.1 +4.8 19 +29 +29 жарко 1012.5 1013.0
09 14.10 СВ 2-5
{7}
19 км н/о +36.7 +6.1 15 +34 +34 очень
жарко
1010.1 1010.0
12 14.10 Ю 2-4
{7}
19 км н/о +37.4 +5.1 14 +35 +35 очень
жарко
1008.5 1009.0
15 14.10 С 1-1
{3}
19 км н/о +33.5 +4.3 16 +31 +31 жарко 1008.6 1009.0
18 14.10 СВ 3-3
{4}
15 км н/о +27.0 +2.8 21 +25 +25 комфорт 1009.8 1010.0
21 14.10 Ю 2-2
{3}
18 км н/о +24.5 +3.6 26 +24 +24 комфорт 1009.8 1010.0 +19.3 +38.7
00 15.10 ЮЗ 3-3
{4}
14 км н/о +21.9 +2.8 28 +22 +22 комфорт 1009.7 1010.0
03 15.10 Ю 4-4
{5}
14 км н/о +19.8 +3.0 33 +20 +20 1011.1 1011.0
06 15.10 ЮЗ 1-2
{5}
18 км н/о +31.6 +5.5 19 +30 +30 жарко 1011.9 1012.0
09 15.10 ЮВ 3-7
{7}
17 км н/о +36.6 +6.6 16 +34 +34 очень
жарко
1010.3 1010.0
12 15.10 ЮЗ 1-3
{8}
19 км н/о +39.4 +5.1 12 +36 +36 очень
жарко
1008.5 1009.0
15 15.10 В 2-4
{6}
17 км н/о +33.6 +5.0 17 +31 +31 жарко 1009.2 1009.0
18 15.10 ЮВ 5-5
{6}
18 км н/о +28.0 +8.1 29 +28 +28 жарко 1010.3 1010.0
21 15.10 ЮЗ 4-4
{5}
15 км н/о +25.1 +5.8 29 +25 +25 комфорт 1010.6 1011.0 +19.7 +40.2
00 16.10 ЮЗ 3-4
{5}
17 км н/о +22.5 +4.5 31 +23 +23 комфорт 1010.3 1010.0
03 16.10 ЮЗ 5-6
{7}
19 км н/о +22.0 +3.5 30 +22 +22 комфорт 1011.8 1012.0
06 16.10 СЗ 5-6
{7}
14 км н/о +29.9 +6.9 24 +29 +29 жарко 1012.4 1012.0
09 16.10 С 3-5
{6}
12 км н/о +36.5 +8.0 18 +35 +35 очень
жарко
1010.5 1011.0
12 16.10 С 2-3
{6}
14 км н/о +37.4 +5.6 14 +35 +35 очень
жарко
1008.7 1009.0
15 16.10 С 5-6
{8}
16 км н/о +32.5 +3.8 16 +30 +30 жарко 1008.8 1009.0
18 16.10 С 3-4
{8}
8000 м дымка н/о +28.3 +4.2 21 +27 +27 жарко 1010.4 1010.0
21 16.10 СЗ 3-3
{5}
13 км н/о +24.2 +4.0 27 +24 +24 комфорт 1010.5 1011.0 +21.4 +38.4
00 17.10 СЗ 3-4
{6}
19 км н/о +22.3 +5.7 34 +23 +23 комфорт 1010.3 1010.0
03 17.10 СЗ 3-4
{5}
11 км н/о +20.7 +4.2 34 +22 +22 комфорт 1011.6 1012.0
06 17.10 С 7-9
{9}
12 км н/о +28.9 +5.3 22 +27 +27 жарко 1012.2 1012.0
09 17.10 С 9-12
{13}
13 км н/о +34.8 +3.7 14 +32 +32 жарко 1010.7 1011.0
12 17.10 С 7-9
{13}
19 км н/о +35.8 +3.2 13 +33 +33 жарко 1009.1 1009.0
15 17.10 С 4-5
{10}
15 км н/о +30.4 +2.2 16 +28 +28 жарко 1010.2 1010.0

 

Местоположение метеостанции Mitribah (Кувейт): широта 29.82 долгота 47.37 высота над уровнем моря 119 м.

В архиве по умолчанию представлена погода в Mitribah за последнюю неделю. Архивные данные за месяц целиком и за предыдущие месяцы, начиная с января 2011 года, Вы можете получить, выбрав интересующий диапазон дат из раскрывающегося списка и нажав кнопку "Ввод!".

Внимание! Время в таблицах - всемирное. Для получения местного времени необходимо прибавить поправку, которая в Mitribah равна 3 ч.

Смотрите также архив погоды в соседних городах и на ближайших метеорологических станциях:

Погода в Abdaly (Кувейт) (43 км)
Погода в Sabriyah (Кувейт) (47 км)
Погода в Jahra (Кувейт) (63 км)
Погода в Abraque Al Habari (Кувейт) (68 км)
Погода в Sulaibiya (Кувейт) (70 км)
Погода в Warba (Кувейт) (73 км)
Погода в Experimental Farm (Кувейт) (81 км)
Погода в Minagish (Кувейт) (85 км)
Погода в Shuwaikh (Кувейт) (85 км)
Погода в Basrah Airport (Ирак) (87 км)

Пояснения к столбцам:

Ветер - указаны скорость ветра в м/с - средняя за 10 мин, порывы в срок и между сроками (в фигурных скобках) и направление, откуда дует ветер: С - северный, СВ - северо-восточный, В - восточный, ЮВ - юго-восточный, Ю - южный, ЮЗ - юго-западный, З - западный, СЗ - северо-западный.
Видимость - горизонтальная дальность видимости в метрах или километрах. При видимости от 1 до 10 км при отсутствии осадков обычно наблюдается дымка, при ухудшении видимости до 1 км и менее - туман. В сухую погоду видимость может ухудшаться дымом, пылью или мглою.
Явления - указаны атмосферные явления, наблюдавшиеся в срок или в последний час перед сроком; фигурными скобками обозначены явления, наблюдавшиеся между сроками (за 1-3 часа до срока); квадратными скобками обозначены град или гололедные отложения с указанием их диаметра в мм.
Облачность - указаны через наклонную черту общая и нижняя облачность в баллах и высота нижней границы облаков в метрах; квадратными скобками обозначены формы облаков: Ci - перистые, Cs - перисто-слоистые, Cc - перисто-кучевые, Ac - высококучевые, As - высокослоистые, Sc - слоисто-кучевые, Ns - слоисто-дождевые, Cu - кучевые, Cb - кучево-дождевые. Подробнее классификацию облаков см. в Атласе облаков (PDF).
T - Температура воздуха - температура, измеренная на высоте 2 м над землей.
Td - Температура точки росы - температура, при понижении до которой содержащийся в воздухе водяной пар достигнет насыщения.
f - Относительная влажность воздуха - влажноcть воздуха, измеренная на высоте 2 м над землей.
Te - Эффективная температура - температура, которую ощущает одетый по сезону человек в тени. Характеристика душности погоды. При расчете учитывается влияние влажности воздуха и скорости ветра на теплоощущения человека.
Tes - Эффективная температура на солнце - температура, которую ощущает человек, с поправкой на солнечный нагрев. Характеристика знойности погоды. Зависит от высоты солнца над горизонтом, облачности и скорости ветра. Ночью, в пасмурную погоду, а также при ветре 12 м/с и более поправка равна нулю.
P - Атмосферное давление - приведенное к уровню моря атмосферное давление.
Po - Атмосферное давление - измеренное на уровне метеостанции атмосферное давление.
Tmin - Минимальная температура - минимум температуры воздуха на высоте 2 м над землей.
Tmax - Максимальная температура - максимум температуры воздуха на высоте 2 м над землей.
R - Количество осадков - Количество выпавших осадков за период времени, мм. При наведении курсора мыши на число - период времени, за который выпало указанное количество осадков.
R24 - Количество осадков - Количество выпавших осадков за 24 часа, мм.
S - Снежный покров - Высота снежного покрова, см. При наведении курсора мыши на число - состояние снежного покрова и степень покрытия местности в баллах.